Location: Bazinghen
(50.8246°N, 1.6616°E)
Time: 23:45:55
(UTC+00:00)

Meteor 2-3 Rocket - Pass Details

Date: 09 April 2020
Orbit: 842 x 885 km, 81.2° (Epoch: 23 May)

Event Time Altitude Azimuth Distance (km) Brightness Sun altitude
Rises 21:46:28 0° 347° (NNW) 3,484 8.0 -25.0°
Reaches altitude 10° 21:48:56 10° 348° (NNW) 2,536 7.1 -25.2°
Maximum altitude 21:54:43 89° 70° (ENE) 874 3.6 -25.7°
Enters shadow 21:55:25 70° 167° (SSE) 920 3.6 -25.8°
